Location: Tom
(33.0437°N, 96.9452°W)
Time: 11:10:18
(UTC-05:00)

Envisat - Pass Details

Date: 27 January 2019
Orbit: 764 x 766 km, 98.1° (Epoch: 21 October)

Event Time Altitude Azimuth Distance (km) Brightness Sun altitude
Rises 19:17:22 0° 166° (SSE) 3,217 6.2 -17.4°
Reaches altitude 10° 19:19:39 10° 167° (SSE) 2,294 5.4 -17.8°
Maximum altitude 19:24:43 90° 248° (WSW) 770 2.9 -18.9°
Drops below altitude 10° 19:29:49 10° 348° (NNW) 2,307 5.5 -19.9°
Sets 19:32:08 0° 348° (NNW) 3,237 6.3 -20.4°
